[[{"header":{"parameterUnit":"m.s-1","parameterCategory":1,"la1":30.2991,"la2":30.254,"lo1":-89.0895,"lo2":-89.0444,"dy":0.0017,"dx":0.0017,"nx":28,"ny":28,"refTime":"2026-02-10T09:00:00:Z","depth":0,"parameterNumber":2,"parameterNumberName":"U-component_of_WINDS"},"data":[0,0,0,0,0,0,0,0,0,0,0,0,0,0,0,0,0,0,0,0,0,0,0,0,0,0,0,0,0,0,0,0,0,0,0,0,0,0,0,0,0,0,0,0,0,0,0,0,0,0,0,0,0,0,0,0,0,0,-0.9844,-0.9844,0,-0.9867,-0.9868,-0.9868,-0.9862,-0.9862,-0.9861,-0.9861,-0.9884,-0.9885,-0.9886,0,0,0,0,0,0,0,0,0,0,0,0,0,-0.9794,-0.9795,-0.9844,-0.9844,-0.9844,-0.9867,-0.9868,-0.9868,-0.9862,-0.9862,-0.9861,-0.9861,-0.9884,-0.9885,-0.9887,0,0,0,0,0,0,0,0,0,0,0,0,0,-0.9817,-0.9796,-0.9844,-0.9844,-0.9845,-0.9867,-0.9868,-0.9868,-0.9863,-0.9862,-0.9861,-0.9861,-0.9884,-0.9885,-0.9887,-0.991,0,0,-0.9891,-0.9892,0,0,0,0,0,0,0,0,-0.9815,-0.9819,-0.9844,-0.9844,-0.9845,-0.9861,-0.9859,-0.9882,-0.9863,-0.9856,-0.9861,-0.986,-0.9877,-0.9879,-0.9885,-0.9911,-0.9912,-0.9892,-0.9893,-0.9893,-0.9894,0,0,0,0,0,0,0,-0.9814,-0.9817,-0.9853,-0.9844,-0.9845,-0.9844,-0.9846,-0.9863,-0.987,-0.9856,-0.9856,-0.9859,-0.9877,-0.9884,-0.9886,-0.9912,-0.9892,-0.9893,-0.9894,-0.9895,-0.9959,-0.996,0,0,0,0,0,0,-0.9812,-0.9816,-0.9852,-0.9854,-0.9828,-0.9845,-0.9848,-0.9857,-0.987,-0.9871,-0.9859,-0.9859,-0.9881,-0.9884,-0.9886,-0.9915,-0.9893,-0.9895,-0.9896,-0.9959,-0.996,-0.996,0,0,0,0,0,0,-0.9811,-0.9815,-0.9851,-0.9835,-0.984,-0.9847,-0.9857,-0.9858,-0.9864,-0.9872,-0.9873,-0.9865,-0.9881,-0.9884,-0.9904,-0.9915,-0.9895,-0.9897,-0.9958,-0.9959,-0.996,-0.9971,0,0,0,0,0,0,-0.981,-0.9815,-0.9824,-0.9835,-0.984,-0.9869,-0.9857,-0.9858,-0.9867,-0.9866,-0.9877,-0.9879,-0.9881,-0.9902,-0.9906,-0.9917,-0.9898,-0.9957,-0.9958,-0.996,-0.997,-0.9972,-0.9975,0,0,0,0,0,-0.9808,-0.9825,-0.9824,-0.9828,-0.9851,-0.9869,-0.9872,-0.9874,-0.9868,-0.9876,-0.9882,-0.9878,-0.9914,-0.9904,-0.9908,-0.992,-0.9956,-0.9958,-0.996,-0.9968,-0.9972,-0.9975,0,0,0,0,0,0,-0.9814,-0.9827,-0.9825,-0.9847,-0.9857,-0.9868,-0.9879,-0.9878,-0.989,-0.9888,-0.9891,-0.9893,-0.9914,-0.9919,-0.9908,-0.9944,-0.9934,-0.9937,-0.9939,-0.9943,-0.9945,-0.9943,-0.9899,0,0,0,0,0,-0.9818,-0.9832,-0.9842,-0.9861,-0.9866,-0.9872,-0.988,-0.9881,-0.9891,-0.9895,-0.9902,-0.9913,-0.9926,-0.9935,-0.9948,-0.9971,-0.9974,-0.9982,-0.9984,-0.9986,-0.9988,-1.0001,-1.0005,-0.9966,-0.9966,-0.9966,0,0,-0.9826,-0.9835,-0.9843,-0.9862,-0.987,-0.9884,-0.9875,-0.9891,-0.9901,-0.9898,-0.9917,-0.9923,-0.9934,-0.9956,-0.9966,-0.9961,-1.0,-0.9988,-0.999,-0.9991,-1.0003,-1.0007,-1.001,-0.9967,-0.9967,-0.9967,0,0,-0.9848,-0.9856,-0.9873,-0.9881,-0.9894,-0.9898,-0.9902,-0.9914,-0.9918,-0.9937,-0.9935,-0.9948,-0.9971,-0.998,-0.9987,-1.0015,-1.0012,-1.0019,-1.0032,-1.0045,-1.0048,-1.005,-1.006,-1.0063,-1.0021,-1.0021,-1.0021,0,-0.9857,-0.9878,-0.9881,-0.9897,-0.9905,-0.9904,-0.9921,-0.9929,-0.9945,-0.9951,-0.9945,-0.9975,-0.9983,-1.0007,-1.0014,-1.002,-1.0025,-1.0017,-1.0047,-1.005,-1.0052,-1.0061,-1.0065,-1.0022,-1.0022,-1.0022,-1.0022,0,-0.9888,-0.9903,-0.9914,-0.993,-0.994,-0.9956,-0.9962,-0.9972,-0.9973,-0.9978,-0.9999,-1.0008,-1.0023,-1.003,-1.003,-1.0054,-1.0051,-1.0046,-1.0036,-1.0057,-1.0065,-1.0069,-1.0023,-1.0023,-1.0023,-1.0022,0,0,-0.9912,-0.9931,-0.9935,-0.9943,-0.9958,-0.9969,-0.9986,-1.0001,-1.001,-1.0021,-1.0035,-1.0056,-1.0052,-1.0061,-1.0063,-1.0074,-1.0095,-1.0068,-1.0069,-1.0072,-1.0122,-1.0125,-1.0129,-1.0094,-1.0095,-1.0095,-1.0121,0,-0.9935,-0.9964,-0.9968,-0.9994,-1.0008,-1.0008,-1.0022,-1.0033,-1.0039,-1.0052,-1.0058,-1.0073,-1.0067,-1.0072,-1.0084,-1.009,-1.0105,-1.0089,-1.0107,-1.0107,-1.0103,-1.0133,-1.0136,-1.0159,-1.0125,-1.0125,-1.0126,0,-0.9965,-0.9978,-1.0005,-1.0019,-1.0025,-1.0038,-1.0053,-1.0065,-1.0078,-1.0081,-1.0092,-1.0093,-1.011,-1.0101,-1.0125,-1.0114,-1.0122,-1.0126,-1.0127,-1.0128,-1.0117,-1.0134,-1.0167,-1.017,-1.0131,-1.0131,-1.013,0,-0.9979,-1.0004,-1.0023,-1.003,-1.0047,-1.0056,-1.0063,-1.0075,-1.0085,-1.0098,-1.0104,-1.0119,-1.0127,-1.0139,-1.0145,-1.0137,-1.0169,-1.0159,-1.0172,-1.0172,-1.0177,-1.0176,-1.0211,-1.0184,-1.0184,-1.0184,-1.0184,0,-1.0003,-1.002,-1.003,-1.0042,-1.0061,-1.0066,-1.0085,-1.0092,-1.0103,-1.0117,-1.0118,-1.0131,-1.0137,-1.0151,-1.0156,-1.0175,-1.0179,-1.0182,-1.0183,-1.0182,-1.0181,-1.0186,-1.0184,-1.0185,-1.0185,-1.0185,-1.0185,0,-1.0022,-1.003,-1.0051,-1.0065,-1.007,-1.0083,-1.0095,-1.0107,-1.0114,-1.0131,-1.0135,-1.0145,-1.0162,-1.0169,-1.0189,-1.0192,-1.0214,-1.0214,-1.021,-1.021,-1.0222,-1.022,-1.026,-1.0265,-1.0236,-1.0236,-1.0236,0,-1.0036,-1.0049,-1.0065,-1.0075,-1.0083,-1.0097,-1.0107,-1.0114,-1.0124,-1.0141,-1.015,-1.0167,-1.0181,-1.0207,-1.0216,-1.0232,-1.0232,-1.0245,-1.0234,-1.0233,-1.0232,-1.023,-1.0232,-1.0246,-1.0247,-1.0247,-1.0247,0,-1.0061,-1.0064,-1.0078,-1.0094,-1.0106,-1.0119,-1.0132,-1.0139,-1.0148,-1.016,-1.0177,-1.0187,-1.0209,-1.0225,-1.0242,-1.025,-1.025,-1.0251,-1.0254,-1.0252,-1.0249,-1.025,-1.0214,-1.0249,-1.0249,-1.0249,-1.0249,-1.0249,-1.0077,-1.0089,-1.0102,-1.0118,-1.0129,-1.0141,-1.0153,-1.0161,-1.0176,-1.0194,-1.0197,-1.0216,-1.0229,-1.0252,-1.0261,-1.0275,-1.0272,-1.0277,-1.0278,-1.0279,-1.028,-1.0248,-1.0278,-1.0278,-1.0278,-1.0278,-1.0278,0,-1.0101,-1.011,-1.0125,-1.0143,-1.0156,-1.0156,-1.017,-1.0181,-1.0197,-1.021,-1.0224,-1.0244,-1.0261,-1.0272,-1.0289,-1.0299,-1.0299,-1.0303,-1.0302,-1.0303,-1.0282,-1.0277,-1.0302,-1.0302,-1.0302,-1.0302,-1.0302,-1.0302,-1.0115,-1.0135,-1.014,-1.0165,-1.0175,-1.0193,-1.0201,-1.0212,-1.0223,-1.0245,-1.0259,-1.0267,-1.0279,-1.0298,-1.0313,-1.0316,-1.0322,-1.0326,-1.0328,-1.0308,-1.0305,-1.0302,-1.0298,-1.0327,-1.0327,-1.0349,-1.0349,-1.0349]},{"header":{"parameterUnit":"m.s-1","parameterCategory":1,"la1":30.2991,"la2":30.254,"lo1":-89.0895,"lo2":-89.0444,"dy":0.0017,"dx":0.0017,"nx":28,"ny":28,"refTime":"2026-02-10T09:00:00:Z","depth":0,"parameterNumber":3,"parameterNumberName":"V-component_of_WINDS"},"data":[0,0,0,0,0,0,0,0,0,0,0,0,0,0,0,0,0,0,0,0,0,0,0,0,0,0,0,0,0,0,0,0,0,0,0,0,0,0,0,0,0,0,0,0,0,0,0,0,0,0,0,0,0,0,0,0,0,0,1.3545,1.3545,0,1.3509,1.3509,1.3508,1.3528,1.3529,1.353,1.3531,1.3491,1.3489,1.3487,0,0,0,0,0,0,0,0,0,0,0,0,0,1.3629,1.3628,1.3545,1.3545,1.3544,1.3509,1.3509,1.3508,1.3528,1.3529,1.353,1.3531,1.3491,1.3489,1.3486,0,0,0,0,0,0,0,0,0,0,0,0,0,1.3593,1.3627,1.3545,1.355,1.355,1.3509,1.3509,1.3508,1.3528,1.3529,1.3531,1.3532,1.3492,1.3489,1.3486,1.3438,0,0,1.3477,1.3476,0,0,0,0,0,0,0,0,1.3595,1.359,1.355,1.355,1.355,1.3525,1.3524,1.3484,1.3527,1.3536,1.3531,1.3533,1.35,1.3497,1.3487,1.3436,1.3434,1.3477,1.3475,1.3474,1.3473,0,0,0,0,0,0,0,1.3597,1.3591,1.3531,1.3549,1.3549,1.3553,1.355,1.3516,1.351,1.3535,1.3537,1.3532,1.3501,1.349,1.3486,1.3433,1.3477,1.3474,1.3472,1.3471,1.3343,1.3341,0,0,0,0,0,0,1.36,1.3593,1.3532,1.353,1.3576,1.3551,1.3547,1.3531,1.3511,1.3509,1.3531,1.3533,1.3494,1.3489,1.3484,1.3428,1.3474,1.3471,1.3469,1.3344,1.3343,1.3341,0,0,0,0,0,0,1.3602,1.3594,1.3533,1.3562,1.3554,1.3548,1.353,1.353,1.3518,1.3507,1.3506,1.3521,1.3495,1.3489,1.345,1.3426,1.3469,1.3467,1.3346,1.3344,1.3342,1.3312,0,0,0,0,0,0,1.3604,1.3595,1.3576,1.3561,1.3553,1.3499,1.3528,1.3528,1.3514,1.3516,1.3498,1.3496,1.3496,1.3454,1.3447,1.3423,1.3464,1.3348,1.3345,1.3342,1.3315,1.3309,1.3304,0,0,0,0,0,1.3607,1.3568,1.3575,1.3568,1.353,1.3498,1.3493,1.3495,1.3512,1.3493,1.3487,1.3496,1.343,1.345,1.3442,1.3417,1.335,1.3346,1.3343,1.3318,1.331,1.3304,0,0,0,0,0,0,1.3579,1.3566,1.3574,1.353,1.3515,1.3502,1.3478,1.3486,1.3466,1.3469,1.3471,1.3466,1.3426,1.3418,1.344,1.337,1.3393,1.3387,1.3377,1.3369,1.3364,1.3366,1.3462,0,0,0,0,0,1.3568,1.3544,1.3534,1.3496,1.3488,1.3484,1.3471,1.3473,1.3458,1.3451,1.3442,1.3425,1.3401,1.3385,1.3362,1.3315,1.3311,1.3294,1.3288,1.3283,1.3278,1.3254,1.3247,1.3329,1.3329,1.3329,0,0,1.3544,1.3534,1.3518,1.349,1.3479,1.3454,1.3479,1.3451,1.3432,1.3446,1.341,1.3402,1.3384,1.3342,1.3322,1.3333,1.3255,1.3279,1.3275,1.3273,1.325,1.3242,1.3235,1.3327,1.3327,1.3327,0,0,1.3488,1.3478,1.3446,1.3435,1.3419,1.3417,1.341,1.3396,1.3392,1.3355,1.3367,1.3344,1.3302,1.3289,1.3277,1.322,1.3228,1.3212,1.3182,1.3158,1.3152,1.3146,1.3126,1.3119,1.3207,1.3207,1.3207,0,1.346,1.3423,1.3428,1.34,1.3387,1.3402,1.3369,1.3358,1.3334,1.3325,1.3339,1.3288,1.3276,1.3232,1.3218,1.3208,1.3199,1.3214,1.3153,1.3147,1.3142,1.3123,1.3115,1.3205,1.3206,1.3206,1.3206,0,1.339,1.3364,1.334,1.332,1.3304,1.3274,1.3274,1.3258,1.3263,1.326,1.3223,1.3211,1.3187,1.3176,1.318,1.3132,1.314,1.3153,1.3176,1.3132,1.3114,1.3107,1.3203,1.3203,1.3204,1.3204,0,0,1.3313,1.3298,1.3288,1.328,1.3265,1.3245,1.3216,1.3194,1.318,1.3164,1.314,1.3105,1.3118,1.3105,1.3107,1.3087,1.3043,1.3102,1.3102,1.3092,1.2991,1.2981,1.2973,1.3049,1.3048,1.3047,1.2993,0,1.3256,1.3206,1.3211,1.3163,1.3141,1.3155,1.313,1.3118,1.3115,1.3095,1.3091,1.3067,1.3085,1.3077,1.3058,1.3052,1.3023,1.3056,1.3026,1.3025,1.303,1.2963,1.2952,1.2902,1.2986,1.2985,1.2984,0,1.3182,1.3166,1.3117,1.3108,1.3098,1.3075,1.3057,1.3037,1.3024,1.3023,1.301,1.3017,1.2987,1.3012,1.2972,1.2995,1.2983,1.2979,1.2977,1.2974,1.3001,1.2958,1.2886,1.2878,1.2973,1.2974,1.2974,0,1.3132,1.3098,1.3064,1.3057,1.3044,1.3028,1.3022,1.3011,1.2998,1.2981,1.2973,1.2953,1.2941,1.2926,1.2927,1.2945,1.2887,1.2911,1.2885,1.2885,1.2871,1.2872,1.2796,1.2864,1.2864,1.2864,1.2865,0,1.3068,1.3037,1.3042,1.3021,1.2988,1.2994,1.296,1.2956,1.2946,1.2925,1.2936,1.2916,1.2919,1.2899,1.29,1.2867,1.2862,1.2861,1.2861,1.2859,1.286,1.2851,1.2855,1.2862,1.2863,1.2863,1.2864,0,1.3004,1.3007,1.2971,1.2964,1.2961,1.2937,1.293,1.2911,1.291,1.2883,1.2877,1.2875,1.2852,1.2852,1.2825,1.2826,1.2787,1.2791,1.2791,1.2792,1.2766,1.2769,1.2682,1.2671,1.2746,1.2746,1.2745,0,1.2963,1.294,1.2931,1.2919,1.2912,1.2892,1.2879,1.2885,1.2872,1.2857,1.2839,1.2818,1.2801,1.2763,1.2759,1.2739,1.2743,1.2714,1.274,1.274,1.2743,1.2745,1.2743,1.2709,1.2708,1.2707,1.2707,0,1.289,1.2893,1.2875,1.2859,1.2844,1.2831,1.2819,1.2808,1.2812,1.2796,1.2774,1.2761,1.2736,1.2714,1.2696,1.2689,1.2698,1.2699,1.2692,1.269,1.2691,1.269,1.2777,1.2701,1.2701,1.2702,1.2702,1.2702,1.2837,1.2818,1.2809,1.279,1.2782,1.2771,1.2753,1.2751,1.2733,1.2713,1.2718,1.2693,1.2682,1.2659,1.2651,1.2631,1.2641,1.2631,1.2628,1.2626,1.2623,1.2695,1.2628,1.2628,1.2628,1.2628,1.2628,0,1.2764,1.276,1.2743,1.2727,1.2711,1.2724,1.2712,1.2698,1.2677,1.2667,1.2651,1.2626,1.2606,1.2601,1.2582,1.2568,1.2572,1.2562,1.2563,1.2562,1.2615,1.2623,1.256,1.256,1.256,1.256,1.256,1.256,1.2725,1.2694,1.2696,1.2662,1.2658,1.2635,1.2627,1.2618,1.261,1.2582,1.2566,1.2564,1.2557,1.2538,1.252,1.2519,1.2512,1.2501,1.2502,1.2551,1.2558,1.2564,1.2572,1.2499,1.2499,1.245,1.245,1.2449]}]]